Home   Weather   Amman   Past weeks
Flag for Jordan

Past Weather in Amman, Jordan — Yesterday and Last 2 Weeks

Now
59 °F

Haze.


Feels Like: 59 °F
Forecast: 57 / 40 °F
Wind: No wind

Location: Amman Airport

Current Time: Jan 22, 2019 at 2:36:38 pm

Latest Report: Jan 22, 2019 at 2:00 pm


Visibility: 2 mi

Pressure: 30.01 "Hg (27.24 "Hg at 816m altitude)

Humidity: 45%

Dew Point: 37 °F

Location of AmmanLocation

Past Weather in Amman — Graph

°F

Amman Temperature Yesterday

Maximum temperature yesterday: 57 °F (at 2:00 pm)
Minimum temperature yesterday: 39 °F (at 6:00 am)
Average temperature yesterday: 49 °F

High & Low Weather Summary for the Past Weeks

 TemperatureHumidityPressure
High57 °F (Jan 12, 3:00 pm)100% (Jan 9, 5:00 am)30.30 "Hg (Jan 9, 5:00 am)
Low32 °F (Jan 16, 9:00 pm)18% (Jan 21, 10:00 am)29.74 "Hg (Jan 16, 1:00 pm)
Average45 °F69%30.04 "Hg
* Reported Jan 7 1:00 pm — Jan 22 1:00 pm, Amman. Weather by CustomWeather, © 2019

Note: Actual official high and low records may vary slightly from our data, if they occured in-between our weather recording intervals... More about our weather records

Advertising

Amman Weather History for the Previous 24 Hours

Scroll right to see more
 ConditionsComfort  
Time TempWeatherWind HumidityBarometerVisibility
1:00 pm
Tue, Jan 22
55 °FHaze.No wind41%30.01 "Hg2 mi
12:00 pm54 °FHaze.3 mph58%30.01 "Hg1 mi
10:00 am48 °FHaze.5 mph62%30.07 "Hg2 mi
9:00 am41 °FHaze.3 mph76%30.04 "Hg2 mi
8:00 am41 °FHaze.No wind76%30.04 "Hg2 mi
7:00 am39 °FHaze.No wind75%30.04 "Hg2 mi
6:15 am41 °FHaze.No wind76%30.04 "Hg2 mi
6:00 am41 °FHaze.No wind76%30.04 "Hg3 mi
5:00 am41 °FHaze.No wind81%30.01 "Hg3 mi
4:00 am43 °FHaze.No wind76%30.01 "Hg3 mi
3:00 am43 °FHaze.No wind71%30.04 "Hg3 mi
2:00 am45 °FHaze.No wind76%30.04 "Hg3 mi
1:00 am46 °FHaze.No wind66%30.07 "Hg3 mi
12:00 am46 °FHaze.No wind82%30.07 "Hg2 mi
11:00 pm
Mon, Jan 21
48 °FLight rain. Passing clouds.No wind71%30.07 "Hg2 mi
10:00 pm48 °FPassing clouds.No wind66%30.07 "Hg2 mi
9:00 pm50 °FPassing clouds.No wind67%30.07 "Hg2 mi
8:00 pm52 °FHaze.No wind67%30.09 "Hg2 mi
7:00 pm52 °FHaze.No wind62%30.09 "Hg2 mi
6:00 pm54 °FHaze.No wind58%30.07 "Hg2 mi
5:18 pm54 °FHaze.No wind54%30.07 "Hg2 mi
5:00 pm55 °FHaze.No wind51%30.07 "Hg2 mi
4:00 pm57 °FHaze.No wind41%30.07 "Hg2 mi
3:00 pm57 °FHaze.3 mph41%30.07 "Hg2 mi
2:00 pm57 °FHaze.3 mph44%30.07 "Hg2 mi
Weather by CustomWeather, © 2019

See weather overview